www.pogodaiklimat.ru

Погода и климат >> Архив погоды >> Норвегия >> Маяк Utsira


ПОГОДА на Маяке Utsira

  • Прогноз погоды на Маяке Utsira
  • Монитор погоды на Маяке Utsira

АРХИВ ПОГОДЫ на Маяке Utsira

Время (UTC), дата Ветер
(напр.,м/с)
 
Видим.   Явления Облачность Т
(С)
Тd
(С)
f
(%)
Тe
(С)
Тes
(С)
Комфортность P
(гПа)
Po
(гПа)
Тmin
(С)
Tmax
(С)
R
(мм)
R24
(мм)
S
(см)
19 18.08 ЮЗ 10
{13}
н/о н/о +15.2 +12.2 82 +13 +13 996.4 989.8
20 18.08 ЮЗ 9
{13}
н/о н/о +15.0 +11.8 81 +13 +13 996.6 990.0
21 18.08 ЮЗ 10
{14}
20 км {ливн. осадки} 4/4 600 м
[Sc]
+14.9 +11.7 81 +12 +12 996.8 990.2
22 18.08 Ю 9
{14}
н/о н/о +15.3 +12.4 83 +13 +13 996.3 989.7
23 18.08 Ю 9
{13}
н/о н/о +15.3 +12.4 83 +13 +13 996.3 989.7
00 19.08 ЮЗ 12
{16}
н/о н/о +15.5 +12.5 82 +13 +13 996.1 989.5
01 19.08 ЮЗ 13
{17}
н/о н/о +15.1 +12.1 82 +12 +12 995.6 989.0
02 19.08 ЮЗ 12
{18}
н/о н/о +14.2 +11.9 86 +11 +11 995.7 989.1
03 19.08 ЮЗ 14
{17}
н/о н/о +14.9 +12.2 84 +12 +12 995.7 989.1
04 19.08 ЮЗ 13
{17}
н/о н/о +14.7 +11.7 82 +12 +12 996.1 989.5
05 19.08 ЮЗ 13
{16}
н/о н/о +14.5 +11.7 83 +11 +11 996.3 989.7
06 19.08 ЮЗ 12
{18}
15 км в посл. час ливневой дождь 9/8 300 м
[Cb cap Ac As]
+14.5 +11.8 84 +12 +12 997.0 990.4 +13.9 +15.5
07 19.08 ЮЗ 11
{15}
н/о н/о +14.5 +12.0 85 +12 +12 997.7 991.1
08 19.08 ЮЗ 12
{16}
н/о н/о +15.0 +12.1 83 +12 +12 998.5 991.9
09 19.08 З 12
{15}
25 км {ливн. осадки} 9/6 600 м
[Cb cap Ac As Cs]
+14.4 +11.7 84 +11 +11 999.5 992.9
10 19.08 ЮЗ 12
{16}
н/о н/о +14.4 +11.9 85 +11 +11 1000.3 993.7
11 19.08 ЮЗ 11
{15}
н/о н/о +14.1 +12.0 87 +11 +11 1001.2 994.6
12 19.08 ЮЗ 7
{16}
15 км в посл. час ливневой дождь 9/8 600 м
[Cb cap Ac As]
+14.5 +12.5 88 +12 +13 1002.0 995.4
13 19.08 ЮЗ 11
{14}
н/о н/о +15.9 +12.5 80 +14 +14 1002.9 996.3
14 19.08 ЮЗ 10
{14}
н/о н/о +16.0 +12.0 77 +14 +14 1003.4 996.8
15 19.08 ЮЗ 11
{14}
25 км {ливн. осадки} 6/6 600 м
[Cu med, cong]
+16.1 +12.1 77 +14 +14 1004.0 997.4
16 19.08 ЮЗ 10
{13}
н/о н/о +15.8 +12.0 78 +14 +14 1004.5 997.9
17 19.08 ЮЗ 9
{12}
н/о н/о +15.5 +11.9 79 +13 +13 1004.8 998.2
18 19.08 ЮЗ 8
{14}
25 км {ливн. осадки} 4/4 600 м
[Cu hum]
+15.1 +11.7 80 +13 +13 1005.3 998.6 +13.5 +16.3
19 19.08 ЮЗ 9
{11}
н/о н/о +14.8 +11.6 81 +12 +12 1005.8 999.1
20 19.08 ЮЗ 8
{11}
н/о н/о +14.7 +11.7 82 +12 +12 1006.4 999.7
21 19.08 ЮЗ 9
{11}
20 км 5/4 600 м
[Cu med, cong Ac As]
+14.8 +11.6 81 +12 +12 1006.7 1000.0
22 19.08 ЮЗ 8
{11}
н/о н/о +14.7 +11.9 83 +12 +12 1006.9 1000.2
23 19.08 ЮЗ 9
{11}
н/о н/о +14.9 +12.2 84 +13 +13 1007.1 1000.4
00 20.08 ЮЗ 9
{11}
н/о н/о +14.9 +12.0 83 +13 +13 1007.1 1000.4
01 20.08 ЮЗ 10
{13}
н/о н/о +15.0 +12.1 83 +13 +13 1007.1 1000.4
02 20.08 ЮЗ 10
{13}
н/о н/о +14.9 +12.2 84 +12 +12 1007.5 1000.8
03 20.08 ЮЗ 9
{12}
н/о н/о +14.9 +12.4 85 +13 +13 1007.7 1001.0
04 20.08 ЮЗ 6
{12}
н/о н/о +14.4 +12.3 87 +12 +12 1008.0 1001.3
05 20.08 З 10
{12}
н/о н/о +14.4 +11.6 83 +12 +12 1008.3 1001.6
06 20.08 ЮЗ 9
{14}
30 км 6/6 600 м
[Cb cap Ci fib]
+14.1 +11.3 83 +11 +11 1008.8 1002.1 +13.7 +15.1
07 20.08 З 9
{12}
н/о н/о +14.2 +11.2 82 +12 +12 1009.3 1002.6
08 20.08 ЮЗ 8
{11}
н/о н/о +14.5 +12.2 86 +12 +12 1010.1 1003.4
09 20.08 З 7
{10}
20 км 8/6 600 м
[Cu med, cong Ac As]
+14.7 +11.7 82 +13 +13 1010.8 1004.1
10 20.08 З 5
{8}
н/о н/о +15.0 +11.2 78 +14 +14 1011.4 1004.7
11 20.08 З 6
{8}
н/о н/о +15.1 +11.3 78 +13 +13 1012.2 1005.5
12 20.08 З 7
{12}
25 км {ливн. осадки} 6/6 600 м
[Cu med, cong Ci fib]
+14.7 +11.3 80 +13 +14 1013.1 1006.4
13 20.08 З 5
{11}
н/о н/о +14.4 +11.0 80 +13 +13 1013.9 1007.2
14 20.08 З 10
{13}
н/о н/о +13.1 +10.3 83 +10 +10 1014.9 1008.1
15 20.08 З 9
{11}
30 км в посл. час ливневой дождь 8/3 600 м
[Cu med, cong Ac As Ci fib]
+14.0 +9.2 73 +11 +12 1015.4 1008.7
16 20.08 З 8
{11}
н/о н/о +14.1 +8.1 67 +12 +12 1016.0 1009.3
17 20.08 З 7
{10}
н/о н/о +14.1 +8.9 71 +12 +12 1016.6 1009.8
18 20.08 СЗ 7
{13}
30 км {ливн. осадки} 4/4 600 м
[Cu med, cong Ci fib]
+13.6 +8.9 73 +11 +11 1017.2 1010.4 +12.9 +15.6
19 20.08 СЗ 6
{9}
н/о н/о +13.1 +9.0 76 +11 +11 1017.8 1011.0
20 20.08 СЗ 8
{11}
н/о н/о +12.5 +9.9 84 +9 +9 1018.6 1011.8
21 20.08 СЗ 6
{11}
20 км 9/4 600 м
[Cu med, cong Ac As]
+12.0 +9.4 84 +9 +9 1019.1 1012.3
22 20.08 СЗ 7
{10}
н/о н/о +12.0 +9.9 87 +9 +9 1019.6 1012.8
23 20.08 СЗ 6
{8}
н/о н/о +12.3 +9.7 84 +10 +10 1019.9 1013.1
00 21.08 СЗ 5
{11}
н/о н/о +11.9 +9.1 83 +9 +9 1020.2 1013.4
01 21.08 СЗ 4
{10}
н/о н/о +12.0 +9.0 82 +10 +10 1020.5 1013.7
02 21.08 С 5
{8}
н/о н/о +12.2 +8.9 80 +10 +10 1020.7 1013.9
03 21.08 СЗ 5
{7}
н/о н/о +12.2 +8.7 79 +10 +10 1021.1 1014.3
04 21.08 СЗ 5
{8}
н/о н/о +12.5 +8.0 74 +10 +10 1021.4 1014.6
05 21.08 СЗ 5
{7}
н/о н/о +12.5 +8.0 74 +10 +10 1021.8 1015.0
06 21.08 СЗ 3
{10}
30 км {ливн. осадки} 5/4 600 м
[Sc Ac trans Ci fib]
+12.6 +7.7 72 +11 +12 1022.1 1015.3 +11.7 +13.7
07 21.08 СЗ 3
{4}
н/о н/о +13.0 +7.5 69 +12 +12 1022.4 1015.6
08 21.08 З 2
{3}
н/о н/о +13.3 +7.1 66 +13 +13 1022.8 1016.0
09 21.08 ЮЗ 4
{5}
30 км 4/4 1000 м
[Sc Ci fib]
+14.2 +6.3 59 +13 +16 1023.0 1016.2
10 21.08 ЮЗ 3
{5}
н/о н/о +14.5 +5.9 56 +14 +14 1023.0 1016.2
11 21.08 ЮЗ 5
{6}
н/о н/о +15.0 +7.3 60 +14 +14 1023.1 1016.3
12 21.08 ЮЗ 5
{7}
55 км 1/1 1000 м
[Cu hum]
+15.2 +8.0 62 +14 +19 1023.2 1016.4
13 21.08 Ю 5
{7}
н/о н/о +15.0 +7.8 62 +14 +14 1023.2 1016.4
14 21.08 Ю 5
{7}
н/о н/о +15.2 +8.0 62 +14 +14 1023.0 1016.2
15 21.08 Ю 5
{7}
55 км 3/1 1000 м
[Cu hum Ac trans]
+15.4 +8.4 63 +14 +16 1022.8 1016.0
16 21.08 Ю 6
{9}
н/о н/о +15.2 +8.2 63 +14 +14 1022.5 1015.7
17 21.08 Ю 7
{9}
н/о н/о +15.0 +8.7 66 +13 +13 1022.1 1015.3
18 21.08 Ю 8
{10}
55 км 3/1 600 м
[Sc diur, vesp Ac trans Ci fib]
+14.6 +9.4 71 +12 +12 1021.5 1014.7 +12.6 +15.4
19 21.08 Ю 9
{12}
н/о н/о +14.6 +10.2 75 +12 +12 1021.1 1014.3
20 21.08 Ю 10
{13}
н/о н/о +14.4 +11.2 81 +12 +12 1020.7 1013.9
21 21.08 Ю 9
{13}
30 км 3/1 1000 м
[Cu hum Ac trans Ci fib]
+15.0 +11.2 78 +13 +13 1020.5 1013.7
22 21.08 Ю 9
{12}
н/о н/о +14.9 +11.7 81 +13 +13 1019.9 1013.1
23 21.08 Ю 11
{16}
н/о н/о +14.3 +12.2 87 +11 +11 1019.2 1012.4
00 22.08 Ю 10
{16}
н/о н/о +15.2 +13.1 87 +13 +13 1018.2 1011.5
01 22.08 Ю 9
{13}
н/о н/о +15.3 +13.0 86 +13 +13 1017.8 1011.1
02 22.08 Ю 10
{14}
н/о н/о +15.3 +13.3 88 +13 +13 1016.7 1010.0
03 22.08 ЮЗ 11
{18}
н/о н/о +13.7 +11.9 89 +10 +10 1016.3 1009.5
04 22.08 Ю 10
{14}
н/о н/о +13.9 +11.3 84 +11 +11 1015.6 1008.8
05 22.08 Ю 11
{16}
н/о н/о +14.3 +12.3 88 +11 +11 1014.8 1008.1
06 22.08 Ю 10
{18}
7000 м слаб. дождь 10/5 300 м
[Frnb As op]
+14.6 +12.8 89 +12 +12 1013.6 1006.9 +13.7 +15.4
07 22.08 ЮЗ 16
{21}
н/о н/о +14.8 +13.4 91 +11 +11 1012.6 1005.9
08 22.08 ЮЗ 12
{18}
н/о н/о +14.7 +13.4 92 +12 +12 1012.9 1006.2
09 22.08 ЮЗ 11
{16}
25 км {дождь} 9/8 300 м
[Cu med, cong Ac As]
+15.1 +13.3 89 +13 +13 1013.6 1006.9
10 22.08 ЮЗ 10
{13}
н/о н/о +15.5 +12.1 80 +13 +13 1013.8 1007.1
11 22.08 ЮЗ 9
{12}
н/о н/о +15.7 +11.5 76 +14 +14 1014.1 1007.4
12 22.08 ЮЗ 8
{21}
40 км {дождь} 4/4 600 м
[Cu med, cong Ci fib]
+15.9 +11.5 75 +14 +15 1014.5 1007.8
13 22.08 ЮЗ 8
{10}
н/о н/о +15.9 +10.9 72 +14 +14 1014.9 1008.2
14 22.08 ЮЗ 9
{11}
н/о н/о +15.9 +10.9 72 +14 +14 1015.3 1008.6
15 22.08 ЮЗ 9
{12}
40 км 5/5 600 м
[Cu hum Cs]
+15.8 +10.4 70 +14 +14 1015.3 1008.6
16 22.08 ЮЗ 9
{12}
н/о н/о +15.4 +10.2 71 +13 +13 1015.0 1008.3
17 22.08 Ю 9
{12}
н/о н/о +15.5 +10.9 74 +13 +13 1014.6 1007.9
18 22.08 Ю 10
{14}
15 км слаб. ливневой дождь 6/5 600 м
[Cb cap Ac As]
+15.2 +11.6 79 +13 +13 1014.1 1007.4 +14.3 +16.3
19 22.08 ЮЗ 10
{14}
н/о н/о +15.3 +11.7 79 +13 +13 1013.9 1007.2
20 22.08 ЮЗ 11
{15}
н/о н/о +15.5 +12.3 81 +13 +13 1013.6 1006.9
21 22.08 ЮЗ 11
{16}
20 км {ливн. осадки} 5/4 600 м
[Cu med, cong Ac As]
+15.5 +12.8 84 +13 +13 1013.6 1006.9
22 22.08 ЮЗ 11
{15}
н/о н/о +15.5 +13.0 85 +13 +13 1012.6 1005.9
23 22.08 ЮЗ 13
{17}
н/о н/о +15.5 +13.9 90 +13 +13 1012.3 1005.6
00 23.08 ЮЗ 12
{17}
н/о н/о +15.7 +14.2 91 +13 +13 1011.9 1005.2
01 23.08 ЮЗ 11
{18}
н/о н/о +15.7 +14.2 91 +13 +13 1012.0 1005.3
02 23.08 З 11
{16}
н/о н/о +15.5 +13.9 90 +13 +13 1012.5 1005.8
03 23.08 З 8
{13}
н/о н/о +15.4 +13.4 88 +13 +13 1013.1 1006.4
04 23.08 ЮЗ 8
{10}
н/о н/о +15.3 +13.2 87 +13 +13 1013.7 1007.0
05 23.08 З 7
{10}
н/о н/о +15.2 +12.3 83 +13 +13 1014.3 1007.6
06 23.08 З 7
{18}
25 км {ливн. осадки} 9/3 600 м
[Sc Ac trans Cs]
+15.2 +12.2 82 +13 +13 1015.1 1008.4 +15.1 +15.8
07 23.08 ЮЗ 8
{10}
н/о н/о +15.4 +11.6 78 +13 +13 1015.8 1009.1
08 23.08 З 6
{10}
н/о н/о +15.7 +11.1 74 +14 +14 1016.5 1009.8
09 23.08 ЮЗ 6
{9}
20 км 9/3 600 м
[Cu med, cong Ac As]
+16.0 +11.6 75 +15 +15 1017.0 1010.3
10 23.08 ЮЗ 6
{10}
н/о н/о +16.7 +11.4 71 +16 +16 1017.6 1010.9
11 23.08 ЮЗ 8
{10}
н/о н/о +16.4 +13.0 80 +15 +15 1018.4 1011.7
12 23.08 ЮЗ 6
{10}
20 км 10/1 300 м
[Cu med, cong Ac As]
+16.3 +13.2 82 +15 +16 1018.7 1012.0
13 23.08 ЮЗ 5
{9}
н/о н/о +15.7 +13.0 84 +14 +14 1019.1 1012.4
14 23.08 ЮЗ 6
{9}
н/о н/о +15.3 +13.0 86 +14 +14 1019.4 1012.7
15 23.08 ЮЗ 5
{8}
5000 м слаб. дождь 10/0
[As op]
+15.6 +13.8 89 +14 +15 1019.6 1012.9
16 23.08 ЮЗ 6
{8}
н/о н/о +15.6 +14.3 92 +14 +14 1019.7 1013.0
17 23.08 З 7
{9}
н/о н/о +15.7 +14.6 93 +14 +14 1019.8 1013.1
18 23.08 ЮЗ 5
{9}
10 км в посл. час дождь 9/8 600 м
[Sc Ac As]
+15.8 +14.5 92 +15 +15 1020.1 1013.4 +15.0 +17.0
19 23.08 ЮЗ 5
{7}
н/о н/о +15.7 +14.4 92 +14 +14 1020.8 1014.1
20 23.08 ЮЗ 5
{7}
н/о н/о +15.7 +14.4 92 +14 +14 1021.4 1014.7
21 23.08 ЮЗ 5
{7}
8000 м дымка 10/10 600 м
[St]
+15.6 +14.3 92 +14 +14 1021.8 1015.0
22 23.08 ЮЗ 5
{7}
н/о н/о +15.5 +14.2 92 +14 +14 1022.0 1015.2
23 23.08 Ю 3
{6}
н/о н/о +15.5 +14.2 92 +15 +15 1022.0 1015.2
00 24.08 Ю 6
{8}
н/о н/о +15.6 +14.3 92 +14 +14 1022.4 1015.6
01 24.08 Ю 6
{8}
н/о н/о +15.3 +13.7 90 +14 +14 1022.5 1015.7
02 24.08 Ю 7
{9}
н/о н/о +15.3 +13.5 89 +13 +13 1022.6 1015.8
03 24.08 Ю 7
{10}
н/о н/о +15.5 +14.0 91 +14 +14 1022.8 1016.0
04 24.08 Ю 9
{11}
н/о н/о +15.6 +14.3 92 +14 +14 1022.5 1015.7
05 24.08 Ю 9
{12}
н/о н/о +15.9 +14.6 92 +14 +14 1022.4 1015.7
06 24.08 Ю 10
{13}
8000 м дымка 10/10 300 м
[St]
+16.0 +14.7 92 +14 +14 1022.5 1015.8 +15.3 +16.0
07 24.08 Ю 12
{15}
н/о н/о +16.0 +14.7 92 +14 +14 1022.3 1015.6
08 24.08 Ю 12
{16}
н/о н/о +16.3 +15.0 92 +14 +14 1022.5 1015.8
09 24.08 Ю 9
{15}
8000 м дымка 9/1 300 м
[St Ac As]
+16.8 +15.3 91 +15 +15 1022.9 1016.2
10 24.08 Ю 10
{14}
н/о н/о +17.1 +15.3 89 +16 +16 1022.7 1016.0
11 24.08 Ю 11
{15}
н/о н/о +17.2 +15.2 88 +16 +16 1022.8 1016.1
12 24.08 Ю 12
{16}
8000 м дымка 9/0
[Ac As Cs]
+17.6 +15.4 87 +16 +16 1022.7 1016.0
13 24.08 Ю 12
{16}
н/о н/о +17.5 +15.3 87 +16 +16 1023.0 1016.3
14 24.08 Ю 11
{15}
н/о н/о +17.1 +15.1 88 +15 +15 1023.1 1016.4
15 24.08 Ю 10
{15}
8000 м дымка 9/3 1500 м
[Sc Ac As Cc]
+17.4 +15.2 87 +16 +16 1023.0 1016.3
16 24.08 Ю 10
{14}
н/о н/о +17.4 +15.2 87 +16 +16 1022.7 1016.0
17 24.08 Ю 10
{13}
н/о н/о +17.0 +15.2 89 +15 +15 1022.6 1015.9
18 24.08 Ю 9
{16}
10 км 10/0
[Ac As Cs]
+16.7 +14.9 89 +15 +15 1022.4 1015.7 +16.0 +17.8
19 24.08 Ю 8
{11}
н/о н/о +16.6 +14.8 89 +15 +15 1022.5 1015.8
20 24.08 Ю 9
{12}
н/о н/о +16.5 +14.9 90 +15 +15 1022.5 1015.8
21 24.08 Ю 8
{11}
12 км 9/0
[Ac As Cs]
+16.4 +14.9 91 +15 +15 1022.5 1015.8
22 24.08 Ю 8
{11}
н/о н/о +16.4 +14.6 89 +15 +15 1022.3 1015.6
23 24.08 Ю 9
{11}
н/о н/о +16.4 +14.9 91 +15 +15 1022.4 1015.7
00 25.08 Ю 8
{12}
н/о н/о +16.4 +14.8 90 +15 +15 1022.3 1015.6
01 25.08 Ю 9
{11}
н/о н/о +16.6 +14.4 87 +15 +15 1022.2 1015.5
02 25.08 Ю 8
{12}
н/о н/о +16.6 +14.6 88 +15 +15 1022.2 1015.5
03 25.08 Ю 7
{10}
н/о н/о +16.5 +14.9 90 +15 +15 1022.0 1015.3
04 25.08 Ю 6
{8}
н/о н/о +16.3 +14.5 89 +15 +15 1021.9 1015.2
05 25.08 Ю 7
{9}
н/о н/о +16.4 +14.6 89 +15 +15 1021.8 1015.1
06 25.08 ЮВ 6
{12}
30 км 8/0
[Cs]
+16.7 +14.7 88 +16 +16 1021.9 1015.2 +16.2 +16.7
07 25.08 Ю 7
{9}
н/о н/о +17.2 +14.8 86 +16 +16 1022.0 1015.3
08 25.08 Ю 6
{10}
н/о н/о +17.6 +15.2 86 +17 +17 1021.9 1015.2
09 25.08 Ю 8
{11}
25 км 9/9 1000 м
[Sc Cs]
+17.9 +15.2 84 +17 +17 1021.9 1015.2
10 25.08 Ю 8
{11}
н/о н/о +17.9 +15.2 84 +17 +17 1022.1 1015.4
11 25.08 ЮЗ 7
{11}
н/о н/о +18.2 +15.5 84 +18 +18 1022.3 1015.6
12 25.08 ЮЗ 7
{11}
15 км 10/1 600 м
[St Cs]
+18.3 +15.7 85 +18 +20 1022.7 1016.0
13 25.08 ЮЗ 7
{9}
н/о н/о +18.5 +16.1 86 +19 +19 1022.8 1016.1
14 25.08 Ю 7
{10}
н/о н/о +18.2 +15.8 86 +18 +18 1022.2 1015.5
15 25.08 Ю 6
{9}
15 км 6/0
[]
+18.1 +15.9 87 +18 +19 1022.4 1015.7
16 25.08 Ю 7
{9}
н/о н/о +17.9 +15.9 88 +17 +17 1022.0 1015.3
17 25.08 Ю 6
{9}
н/о н/о +17.8 +15.6 87 +17 +17 1021.9 1015.2
18 25.08 Ю 6
{10}
25 км 10/0
[Cs]
+17.4 +15.2 87 +17 +17 1021.8 1015.1 +16.7 +18.8
19 25.08 Ю 6
{8}
н/о н/о +17.3 +14.9 86 +16 +16 1021.8 1015.1

 

Местоположение метеостанции Маяк Utsira (Норвегия): широта 59.31 долгота 4.88 высота над уровнем моря 55 м.

В архиве по умолчанию представлена погода на Маяке Utsira за последнюю неделю. Архивные данные за месяц целиком и за предыдущие месяцы, начиная с января 2011 года, Вы можете получить, выбрав интересующий диапазон дат из раскрывающегося списка и нажав кнопку "Ввод!".


*Определитесь, кто Вы:
робот инопланетянин человек

Внимание! Время в таблицах - всемирное. Для получения местного времени необходимо прибавить поправку, которая равна 1 ч.

Смотрите также архив погоды в соседних городах и на ближайших метеорологических станциях:

Погода в Роваере (Норвегия) (18 км)
Погода в Аэропорту Haugesund (Норвегия) (19 км)
Погода в Квитсёй (Норвегия) (41 км)
Погода в Недре Ватс (Норвегия) (52 км)
Погода в Ставангере (Норвегия) (62 км)
Погода в Ставангер аэропорту (Норвегия) (65 км)
Погода в Фистере (Норвегия) (67 км)
Погода на Маяке Slatteroy (Норвегия) (68 км)
Погода в Сархейме (Норвегия) (75 км)
Погода на Лярватне (Норвегия) (76 км)

Пояснения к столбцам:

Ветер - указаны скорость ветра в м/с - средняя за 10 мин, порывы в срок и между сроками (в фигурных скобках) и направление, откуда дует ветер: С - северный, СВ - северо-восточный, В - восточный, ЮВ - юго-восточный, Ю - южный, ЮЗ - юго-западный, З - западный, СЗ - северо-западный.
Видимость - горизонтальная дальность видимости в метрах или километрах. При видимости от 1 до 10 км при отсутствии осадков обычно наблюдается дымка, при ухудшении видимости до 1 км и менее - туман. В сухую погоду видимость может ухудшаться дымом, пылью или мглою.
Явления - указаны атмосферные явления, наблюдавшиеся в срок или в последний час перед сроком; фигурными скобками обозначены явления, наблюдавшиеся между сроками (за 1-3 часа до срока); квадратными скобками обозначены град или гололедные отложения с указанием их диаметра в мм.
Облачность - указаны через наклонную черту общая и нижняя облачность в баллах и высота нижней границы облаков в метрах; квадратными скобками обозначены формы облаков: Ci - перистые, Cs - перисто-слоистые, Cc - перисто-кучевые, Ac - высококучевые, As - высокослоистые, Sc - слоисто-кучевые, Ns - слоисто-дождевые, Cu - кучевые, Cb - кучево-дождевые. Подробнее классификацию облаков см. в Атласе облаков (PDF).
T - Температура воздуха - температура, измеренная на высоте 2 м над землей.
Td - Температура точки росы - температура, при понижении до которой содержащийся в воздухе водяной пар достигнет насыщения.
f - Относительная влажность воздуха - влажноcть воздуха, измеренная на высоте 2 м над землей.
Te - Эффективная температура - температура, которую ощущает одетый по сезону человек в тени. Характеристика душности погоды. При расчете учитывается влияние влажности воздуха и скорости ветра на теплоощущения человека.
Tes - Эффективная температура на солнце - температура, которую ощущает человек, с поправкой на солнечный нагрев. Характеристика знойности погоды. Зависит от высоты солнца над горизонтом, облачности и скорости ветра. Ночью, в пасмурную погоду, а также при ветре 12 м/с и более поправка равна нулю.
P - Атмосферное давление - приведенное к уровню моря атмосферное давление.
Po - Атмосферное давление - измеренное на уровне метеостанции атмосферное давление.
Tmin - Минимальная температура - минимум температуры воздуха на высоте 2 м над землей.
Tmax - Максимальная температура - максимум температуры воздуха на высоте 2 м над землей.
R - Количество осадков - Количество выпавших осадков за период времени, мм. При наведении курсора мыши на число - период времени, за который выпало указанное количество осадков.
R24 - Количество осадков - Количество выпавших осадков за 24 часа, мм.
S - Снежный покров - Высота снежного покрова, см. При наведении курсора мыши на число - состояние снежного покрова и степень покрытия местности в баллах.